WILDBLUE-1

Last updated on Thu Nov 21 2024 00:02:40 GMT+0000 (Coordinated Universal Time)

1 29643U 06054A 24325.29852191 -.00000047 00000+0 00000+0 0 9992 2 29643 1.3161 87.9846 0002150 154.3605 173.7573 1.00271223 48038
UTC large
Height (km)
Speed (km/s)
/
Latitude / Longitude
Inclination (degrees)
Orbital Period (minutes)
Azimuth
Elevation
Range (km)
Doppler Factor

Next 0 passes for location: London (51.5072 / 0.1276)

Sorry there are no passes over London.